Hourly Data Report for February 26, 2021

KUGAARUK CLIMATE
NUNAVUT
Current Station Operator: ECCC - MSC

68°32'15.060" N
89°47'47.020" W
15.80 m
2303094
71407
NBB

Download Data

Hourly Data (February 2021)
Hourly Data Report for February 26, 2021
TIME
LST
Temp Definition
°C
Dew Point Definition
°C
Rel Hum Definition
%
Precip. Amount Definition
mm

Wind Dir Definition
10's deg

Wind Spd Definition
km/h
Visibility Definition
km
Stn Press Definition
kPa
Hmdx Definition


Wind Chill Definition


Weather Definition


00:00 -40.9 -44.4 69 0.0 5 10   100.36   -52 LegendNANA
01:00 -39.5 -42.9 70 0.0 6 10   100.36   -51 LegendNANA
02:00 -40.3 -43.8 69 0.0 4 9   100.36   -51 LegendNANA
03:00 -37.2 -40.7 70 0.0 7 10   100.34   -48 LegendNANA
04:00 -36.0 -39.5 70 0.0 9 8   100.30   -45 LegendNANA
05:00 -36.7 -40.2 70 0.0 9 8   100.29   -46 LegendNANA
06:00 -35.1 -38.7 70 0.0 4 14   100.27   -47 LegendNANA
07:00 -34.7 -38.2 70 0.0 9 8   100.24   -43 LegendNANA
08:00 -34.8 -38.4 70 0.0 4 9   100.19   -44 LegendNANA
09:00 -33.8 -37.4 70 0.0 2 22   100.08   -49 LegendNANA
10:00 -33.1 -37.1 68 0.0 1 31   100.01   -50 LegendNANA
11:00 -33.3 -37.7 65 0.0 2 31   99.96   -50 LegendNANA
12:00 -33.1 -37.5 65 0.0 1 21   99.96   -47 LegendNANA
13:00 -34.3 -38.2 68 0.0 26 10   99.92   -44 LegendNANA
14:00 -33.9 -37.7 68 0.0 25 11   99.84   -44 LegendNANA
15:00 -33.2 -36.9 69 0.0 29 7   99.78   -41 LegendNANA
16:00 -33.4 -37.0 70 0.0 30 7   99.74   -41 LegendNANA
17:00 -33.3 -37.1 69 0.0 32 10   99.68   -43 LegendNANA
18:00 -33.2 -36.9 69 0.0 30 11   99.64   -44 LegendNANA
19:00 -33.2 -37.1 68 0.0 31 13   99.57   -44 LegendNANA
20:00 -33.0 -36.9 68 0.0 31 16   99.48   -45 LegendNANA
21:00 -33.0 -36.9 68 0.0 31 16   99.40   -45 LegendNANA
22:00 -32.9 -36.7 69 0.0 30 14   99.34   -45 LegendNANA
23:00 -34.6 -38.1 70 0.0 24 15   99.28   -47 LegendNANA

Notes on Data Quality.

Legend

  • E = Estimated
  • M = Missing
  • NA = Not Available*
  • [empty] = Indicates an unobserved value
Date modified: